Pagosa Springs, CO

10:47 PM MDT on July 25, 2017 (GMT -0600)
Pagosa Springs

Weather History for KPSO - April, 2013

Change the Weather History Date:

Friday, April 19, 2013

  Actual Average (KE33) Record (KE33)
Temperature  
Mean Temperature 34 °F -  
Max Temperature 50 °F 51 °F 69 °F (2012)
Min Temperature 18 °F 31 °F 21 °F (1998)
Degree Days  
Heating Degree Days 31    
Moisture  
Dew Point 3 °F    
Average Humidity 28    
Maximum Humidity 53    
Minimum Humidity 13    
Precipitation  
Precipitation 0.00 in - - ()
Sea Level Pressure  
Sea Level Pressure 30.17 in    
Wind  
Wind Speed 3 mph (SW)    
Max Wind Speed 17 mph    
Max Gust Speed 26 mph    
Visibility 10 miles    
Events Thunderstorm    
Averages and records for this station are not official NWS values.
T = Trace of Precipitation, MM = Missing Value Source: NWS Daily Summary

Daily Weather History Graph

Daily Weather History Graph

Search for Another Location

Airport or City:

Trip Planner

Search our weather history database for the weather conditions in past years. The results will help you decide how hot, cold, wet, or windy it might be!

Date:

Astronomy

Apr. 19, 2013 Rise Set
Actual Time 6:27 AM MDT 7:47 PM MDT
Civil Twilight 6:00 AM MDT 8:14 PM MDT
Nautical Twilight 5:28 AM MDT 8:47 PM MDT
Astronomical Twilight 4:54 AM MDT 9:21 PM MDT
Moon 1:42 PM MDT (4/19) 2:36 AM MDT (4/19)
Length of Visible Light 14h 13m
Length of Day
13h 19m
Waxing Gibbous, 62% of the Moon is Illuminated
Apr 19
Waxing Gibbous
Apr 25
Full
May 2
Last Quarter
May 9
New
May 17
First Quarter

Hourly Weather History & Observations

Time (MDT) Temp. Windchill Dew Point Humidity Pressure Visibility Wind Dir Wind Speed Gust Speed Precip Events Conditions
12:15 AM 22.3 °F - 3.2 °F 44% 30.23 in 10.0 mi Calm Calm - N/A   Clear
12:35 AM 21.2 °F - 3.0 °F 46% 30.23 in 10.0 mi Calm Calm - N/A   Clear
12:55 AM 22.1 °F - -2.2 °F 35% 30.23 in 10.0 mi Calm Calm - N/A   Clear
1:15 AM 20.8 °F - 0.1 °F 41% 30.24 in 10.0 mi Calm Calm - N/A   Clear
1:35 AM 19.8 °F - 1.6 °F 45% 30.24 in 10.0 mi Calm Calm - N/A   Clear
1:55 AM 19.0 °F - 0.9 °F 45% 30.24 in 10.0 mi Calm Calm - N/A   Clear
2:15 AM 20.1 °F 15.2 °F -0.4 °F 41% 30.24 in 10.0 mi North 3.5 mph - N/A   Clear
2:35 AM 20.5 °F - 4.5 °F 50% 30.24 in 10.0 mi Calm Calm - N/A   Clear
2:55 AM 21.2 °F - 3.6 °F 47% 30.24 in 10.0 mi Calm Calm - N/A   Clear
3:15 AM 20.1 °F - 2.8 °F 47% 30.23 in 10.0 mi Calm Calm - N/A   Clear
3:35 AM 21.0 °F - 1.0 °F 42% 30.23 in 10.0 mi Calm Calm - N/A   Clear
3:55 AM 22.8 °F 16.7 °F -4.4 °F 30% 30.23 in 10.0 mi NW 4.6 mph - N/A   Clear
4:15 AM 24.4 °F - -5.6 °F 27% 30.24 in 10.0 mi Calm Calm - N/A   Clear
4:35 AM 22.8 °F - -3.5 °F 32% 30.23 in 10.0 mi Calm Calm - N/A   Clear
4:55 AM 21.9 °F - -2.4 °F 35% 30.22 in 10.0 mi Calm Calm - N/A   Clear
5:15 AM 21.4 °F - -2.4 °F 35% 30.23 in 10.0 mi Calm Calm - N/A Thunderstorm Thunderstorm
5:35 AM 22.1 °F - 1.2 °F 40% 30.23 in 10.0 mi Calm Calm - N/A   Clear
5:55 AM 22.6 °F - 0.3 °F 38% 30.24 in 10.0 mi Calm Calm - N/A   Clear
6:15 AM 21.7 °F - 0.5 °F 40% 30.24 in 10.0 mi Calm Calm - N/A   Clear
6:35 AM 19.2 °F - 1.9 °F 47% 30.24 in 10.0 mi Calm Calm - N/A   Clear
6:55 AM 18.7 °F - 0.1 °F 44% 30.25 in 10.0 mi Calm Calm - N/A   Clear
7:15 AM 19.2 °F - 4.6 °F 53% 30.25 in 10.0 mi Calm Calm - N/A   Clear
7:35 AM 22.3 °F - 3.2 °F 44% 30.26 in 10.0 mi Calm Calm - N/A   Clear
7:55 AM 24.3 °F - 1.9 °F 38% 30.26 in 10.0 mi Calm Calm - N/A   Clear
8:15 AM 26.2 °F - 0.3 °F 33% 30.26 in 10.0 mi Calm Calm - N/A   Clear
8:35 AM 27.1 °F - 1.6 °F 33% 30.26 in 10.0 mi Calm Calm - N/A   Clear
8:55 AM 28.6 °F - 2.5 °F 33% 30.25 in 10.0 mi Calm Calm - N/A   Clear
9:15 AM 31.6 °F 28.3 °F 2.8 °F 30% 30.25 in 10.0 mi East 3.5 mph - N/A   Clear
9:35 AM 31.6 °F - 0.9 °F 27% 30.25 in 10.0 mi Calm Calm - N/A   Clear
9:55 AM 32.9 °F 26.7 °F -3.3 °F 21% 30.25 in 10.0 mi SW 6.9 mph - N/A   Clear
10:15 AM 33.4 °F - -3.3 °F 21% 30.25 in 10.0 mi Calm Calm - N/A   Clear
10:35 AM 35.4 °F 30.5 °F -4.2 °F 18% 30.24 in 10.0 mi WSW 5.8 mph - N/A   Clear
10:55 AM 36.1 °F 29.9 °F -2.4 °F 19% 30.24 in 10.0 mi SW 8.1 mph - N/A   Clear
11:15 AM 37.2 °F - -4.4 °F 17% 30.24 in 10.0 mi Calm Calm - N/A   Clear
11:35 AM 39.6 °F 34.7 °F -2.6 °F 17% 30.23 in 10.0 mi SW 6.9 mph - N/A   Clear
11:55 AM 39.4 °F 35.2 °F -3.5 °F 16% 30.22 in 10.0 mi South 5.8 mph - N/A   Clear
12:15 PM 40.8 °F 36.9 °F -2.7 °F 16% 30.21 in 10.0 mi SSE 5.8 mph - N/A   Clear
12:35 PM 41.7 °F 37.3 °F -1.3 °F 16% 30.20 in 10.0 mi WSW 6.9 mph - N/A   Clear
12:55 PM 42.4 °F 39.6 °F -3.3 °F 15% 30.19 in 10.0 mi SW 4.6 mph - N/A   Clear
1:15 PM 43.9 °F 38.3 °F -2.7 °F 14% 30.19 in 10.0 mi SSW 10.4 mph - N/A   Clear
1:35 PM 44.8 °F 39.9 °F -1.5 °F 15% 30.17 in 10.0 mi WSW 9.2 mph - N/A   Clear
1:55 PM 45.9 °F 41.2 °F -3.1 °F 13% 30.16 in 10.0 mi SSW 9.2 mph - N/A Thunderstorm Thunderstorm
2:15 PM 45.9 °F 41.2 °F -1.5 °F 14% 30.15 in 10.0 mi SW 9.2 mph - N/A   Clear
2:35 PM 47.7 °F - 0.7 °F 14% 30.14 in 10.0 mi SW 11.5 mph 17.3 mph N/A   Clear
2:55 PM 47.8 °F - 0.7 °F 14% 30.14 in 10.0 mi WSW 12.7 mph 16.1 mph N/A   Clear
3:15 PM 48.4 °F - 1.8 °F 15% 30.13 in 10.0 mi SSW 11.5 mph 21.9 mph N/A   Clear
3:35 PM 49.1 °F - 2.5 °F 15% 30.12 in 10.0 mi WSW 8.1 mph 23.0 mph N/A   Clear
3:55 PM 49.8 °F - 3.9 °F 15% 30.10 in 10.0 mi SW 13.8 mph 21.9 mph N/A   Scattered Clouds
4:15 PM 50.0 °F - 5.4 °F 16% 30.09 in 10.0 mi SW 17.3 mph 20.7 mph N/A   Scattered Clouds
4:35 PM 50.4 °F - 5.4 °F 16% 30.09 in 10.0 mi SW 13.8 mph 19.6 mph N/A   Scattered Clouds
4:55 PM 49.6 °F - 4.5 °F 16% 30.08 in 10.0 mi SW 17.3 mph 26.5 mph N/A   Clear
5:15 PM 48.6 °F - 4.6 °F 17% 30.08 in 10.0 mi SW 16.1 mph 23.0 mph N/A   Clear
5:35 PM 48.4 °F - 4.8 °F 17% 30.08 in 10.0 mi SW 11.5 mph - N/A   Clear
5:55 PM 49.1 °F - 4.6 °F 16% 30.07 in 10.0 mi SSW 12.7 mph 19.6 mph N/A   Clear
6:15 PM 48.9 °F - 4.8 °F 17% 30.07 in 10.0 mi SW 15.0 mph 19.6 mph N/A   Scattered Clouds
6:35 PM 48.2 °F - 3.9 °F 16% 30.07 in 10.0 mi SSW 8.1 mph 17.3 mph N/A   Mostly Cloudy
6:55 PM 48.0 °F - 4.6 °F 17% 30.07 in 10.0 mi SSW 11.5 mph 18.4 mph N/A   Overcast
7:15 PM 47.1 °F - 4.8 °F 18% 30.06 in 10.0 mi SSW 12.7 mph 17.3 mph N/A   Overcast
7:35 PM 46.2 °F 41.7 °F 5.0 °F 18% 30.05 in 10.0 mi South 9.2 mph - N/A   Overcast
7:55 PM 45.3 °F 41.6 °F 7.2 °F 21% 30.06 in 10.0 mi South 6.9 mph - N/A   Overcast
8:15 PM 44.1 °F 39.5 °F 8.1 °F 23% 30.05 in 10.0 mi SSW 8.1 mph - N/A   Mostly Cloudy
8:35 PM 42.8 °F 39.3 °F 8.4 °F 24% 30.07 in 10.0 mi SSW 5.8 mph - N/A   Scattered Clouds
8:55 PM 41.9 °F - 10.0 °F 27% 30.07 in 10.0 mi Calm Calm - N/A   Clear
9:15 PM 37.2 °F - 13.6 °F 38% 30.07 in 10.0 mi Calm Calm - N/A   Scattered Clouds
9:35 PM 39.4 °F - 10.0 °F 30% 30.08 in 10.0 mi Calm Calm - N/A   Mostly Cloudy
9:55 PM 38.5 °F 35.0 °F 11.8 °F 34% 30.08 in 10.0 mi NNE 4.6 mph - N/A   Overcast
10:15 PM 39.0 °F 34.8 °F 10.4 °F 31% 30.07 in 10.0 mi NE 5.8 mph - N/A   Mostly Cloudy
10:35 PM 38.1 °F 34.6 °F 10.6 °F 32% 30.07 in 10.0 mi NNE 4.6 mph - N/A   Mostly Cloudy
10:55 PM 38.1 °F 35.7 °F 9.5 °F 31% 30.07 in 10.0 mi NE 3.5 mph - N/A   Overcast
11:15 PM 36.1 °F 33.5 °F 11.3 °F 36% 30.05 in 10.0 mi NNE 3.5 mph - N/A   Scattered Clouds
11:35 PM 35.4 °F - 13.3 °F 40% 30.05 in 10.0 mi Calm Calm - N/A   Mostly Cloudy
11:55 PM 34.3 °F - 15.1 °F 45% 30.05 in 10.0 mi Calm Calm - N/A   Mostly Cloudy